Weather Roundup
Issued by NWS Chicago, IL

Home | Current Version | Previous Version | Text Only | Print | Product List | Glossary On
Versions: 1 2 3 4 5 6 7 8 9 10 11 12 13 14 15 16 17 18 19 20 21 22 23 24 25 26 27 28 29 30 31 32 33 34 35 36 37 38 39 40 41 42 43 44 45 46 47 48 49 50
000
NZUS59 KLOT 271608
HRRLOT

CHICAGO AREA WEATHER ROUNDUP
NATIONAL WEATHER SERVICE CHICAGO/ROMEOVILLE IL
1100 AM CDT MON APR 27 2015

NOTE: "FAIR" INDICATES FEW OR NO CLOUDS BELOW 12,000 FEET WITH NO
SIGNIFICANT WEATHER AND/OR OBSTRUCTIONS TO VISIBILITY.

* THESE STATIONS ARE NOT UNDER NWS QUALITY CONTROL. THEY ALSO MAY NOT
  REPORT WEATHER SUCH AS PRECIPITATION OR FOG.

ILZ005-006-012>014-019>023-271700-
NORTHEAST ILLINOIS

CITY           SKY/WX    TMP DP  RH WIND       PRES   REMARKS
OHARE          PTSUNNY   51  32  48 N14       30.12F
MIDWAY         MOSUNNY   54  34  46 N20G26    30.12F
AURORA         SUNNY     54  36  50 N12       30.14S
LANSING*       SUNNY     48  33  56 N17       30.13R
JOLIET*        MOSUNNY   55  36  48 N12G21    30.13S
WAUKEGAN       MOSUNNY   50  35  56 NE12      30.13S
DUPAGE AIRPORT PTSUNNY   52  34  50 N12       30.12F
WHEELING       CLOUDY    51  33  50 NE13      30.15S
KANKAKEE*      PTSUNNY   52  36  54 N10G22    30.12S
MORRIS*        SUNNY     53  35  50 N9        30.12R
LEWIS AIRPORT* PTSUNNY   52  32  47 N12G21    30.12S
NORTHERLY IS     N/A     47  35  63 N17         N/A
$$

WIZ051-052-058>065-066-070>072-271700-
SOUTHEAST WISCONSIN

CITY           SKY/WX    TMP DP  RH WIND       PRES   REMARKS
MILWAUKEE      MOSUNNY   50  33  52 NE13      30.14S
KENOSHA*       MOSUNNY   53  35  50 N9        30.13S
RACINE*        SUNNY     50  33  52 N10       30.16R
BURLINGTON     MOSUNNY   50  32  49 N8G17     30.13F
WAUKESHA       MOSUNNY   52  34  50 N14G23    30.14R
WEST BEND      MOSUNNY   52  32  46 NW13      30.13R
$$

INZ001>003-010>013-019-020-271700-
NORTHWEST INDIANA

CITY           SKY/WX    TMP DP  RH WIND       PRES   REMARKS
GARY*          MOSUNNY   50  32  50 N24       30.13S
MICHIGAN CITY* NOT AVBL
RENSSELAER*    NOT AVBL
VALPARAISO     PTSUNNY   48  36  63 N15G24    30.10R
$$

LMZ740>746-271700-
SOUTHERN LAKE MICHIGAN

STATION/POSITION TIME  SKY/WX   TEMP WIND        PRES    VSBY
                                AIR  DIR/SP/G
                 (UTC)          (F)  (DEG/KT/KT) (MB)    (MI)
HARRISON CRIB    1500            43  340/ 19/ 22   N/A
BURNHAM HARBOR   1600            47  340/ 16/ 20   N/A
CALUMET HARBOR   1500            46  330/ 15/ 19   N/A
BURNS HARBOR     1500            42  340/ 17/ 20 1020.0S
MICHIGAN CITY    1500            41  320/ 21/ 23   N/A
$$

ABBREVIATIONS USED IN REMARKS
   TC - TEMPERATURE IN CELSIUS
  WCI - WIND CHILL INDEX
   HX - HEAT INDEX
  VSB - VISIBILITY
$$


USA.gov is the U.S. government's official web portal to all federal, state and local government web resources and services.